events-overview

 

Overall Combined Results - Vulcan Run 10K 2016

** Results are for the private use of participants and are the Intellectual Property of Set Up Events. Unauthorized use of these results is prohibited.

Place Bib NAME Age Sex CITY/STATE TeamName GunTime GunPace TagTime TagPace
117KIRUBEL ERASSA23MATLANTA GA 00:29:3100:04:4600:29:3100:04:46
220ELKANAH KIBET33MFOUNTAIN CO 00:29:3400:04:4700:29:3400:04:47
319CALEB HOOVER24MGREENVILLE SC 00:29:4500:04:4800:29:4500:04:48
432PAUL SUGUT30MGRAND PRAIRIE TX 00:29:4900:04:4900:29:4900:04:49
5819RACHID EZZOUNIOU34MMORRISTOWN NJ 00:29:5200:04:4900:29:5200:04:49
6863HILLARY TOO37MMORRISTOWN NJ 00:30:0900:04:5200:30:0900:04:52
730TABOR STEVENS25MGREENVILLE SC 00:30:1200:04:5300:30:1200:04:53
818ADAM FREUDENTHAL27MSPARTANBURG SC 00:30:2300:04:5500:30:2300:04:54
9483ANDREW MONAGHAN23MSTARKVILLE MS 00:31:3500:05:0600:31:3400:05:06
10857PATRICK ROHR24MMOBILE AL 00:31:4000:05:0700:31:4000:05:07
1122RICHARD KIMANI28MBIRMINGHAM ALCADENCE COED00:32:0200:05:1000:32:0100:05:10
1227JEFF RHODES30MBIRMINGHAM ALRUNNINGLANE COED00:32:1700:05:1300:32:1600:05:13
1316MATHEW DUNN23MDECATUR AL 00:32:3000:05:1500:32:2900:05:15
14959JOHN ROHR20MSAN JOSE CA 00:32:3500:05:1600:32:3400:05:16
15994DAVID MOKONE25MBOWLING GREEN KY 00:33:4800:05:2700:33:4700:05:27
1626SAMUEL PALMER28MBIRMINGHAM ALCAHABA DISTANCE PROJECT00:34:0100:05:3000:34:0100:05:30
171JOAN AIYABEI37FLANSING MI 00:34:1600:05:3200:34:1500:05:32
18861PARKER STEED20MBRENTWOOD TN 00:34:1800:05:3200:34:1800:05:32
19476ETHAN MINES18MPANAMA CITY FL 00:34:3300:05:3500:34:3200:05:35
2012MICHAEL BROWN32MBIRMINGHAM ALRUNNINGLANE COED00:34:4400:05:3700:34:4200:05:36
2115GOLDEN COACHMAN32MBIRMINGHAM ALCAHABA DISTANCE PROJECT00:34:5300:05:3800:34:5300:05:38
221079GLADYS DAVID25FMURFREESBORO TN 00:35:0900:05:4100:35:0800:05:40
231093JOSH BAKER26MHOOVER AL 00:35:1100:05:4100:35:0900:05:41
24942JACK MILLER22MBIRMINGHAM AL 00:35:1500:05:4200:35:1400:05:41
2531ORINTHAL STRIGGLES40MCOLUMBAI SC 00:35:3000:05:4400:35:3000:05:44
26837JACOB RUSSELL LISTER18MBIRMINGHAM ALCADENCE COED00:35:4600:05:4700:35:4500:05:46
27804JEFFREY ZICKUS42MATLANTA GA 00:35:4700:05:4700:35:4600:05:46
287EMMA NEIGEL22FSTARKVILLE MS 00:35:5300:05:4800:35:5200:05:48
293VICTORIA VORONKO25FGREENVILLE SC 00:36:0000:05:4900:35:5900:05:49
301011MATTHEW HAMMERSMITH29MGREENVILLE SC 00:36:0000:05:4900:35:5900:05:49
PlaceBibNAMEAgeSexCITY/STATETeamNameGunTimeGunPaceTagTimeTagPace
3158JUSTIN ARSEMENT24MBIRMINGHAM ALCAHABA DISTANCE PROJECT00:36:0200:05:4900:36:0000:05:49
3234MATTHEW WHITIS48MCOLUMBUS GA 00:36:0400:05:4900:36:0200:05:49
33527GRIFFIN OAKS18MBIRMINGHAM AL 00:36:3400:05:5400:36:3000:05:54
34953DAVID OLSEN25MBIRMINGHAM AL 00:36:4800:05:5700:36:4700:05:56
3539AARON AINSWORTH34MBIRMINGHAM AL 00:36:4900:05:5700:36:4700:05:56
36200SEAN DRUMMOND18MBIRMINGHAM AL 00:36:5200:05:5700:36:3900:05:55
37553BLAKE PEARSON37MHOMEWOOD ALRESOLUTE RUNNING COED00:37:0900:06:0000:37:0700:06:00
38941JOANNA MCCOY22FMOBILE AL 00:37:3100:06:0400:37:3000:06:03
394RACHEL HARLEY26FBIRMINGHAM ALCADENCE COED00:37:3300:06:0400:37:3200:06:04
4011SHAWANNA WHITE36FCOLUMBIA SCRUNNINGLANE COED00:37:4000:06:0500:37:3800:06:05
416JUSTYNA MUDY-MADER32FHUNTSVILLE ALRUNNINGLANE COED00:37:4100:06:0500:37:4000:06:05
4260BRIAN ATKINS35MHOMEWOOD AL 00:37:4300:06:0500:37:4000:06:05
439LAUREN SCOTT25FBIRMINGHAM ALCAHABA DISTANCE PROJECT00:38:0600:06:0900:38:0500:06:09
44521MICHAEL NIEZGODA27MBIRMINGHAM ALCAHABA DISTANCE PROJECT00:38:1900:06:1100:38:1700:06:11
45140JEFF CLARK51MMCCALLA AL 00:38:2300:06:1200:38:2200:06:12
4610WHITLEY WALDROP23FJACKSONVILLE ALCADENCE COED00:38:4300:06:1500:38:4200:06:15
47731JIRI VLACH37MBIRMINGHAM AL 00:39:0000:06:1800:38:5700:06:17
48687ERIC SULLIVAN48MBIRMINGHAM AL 00:39:0600:06:1900:39:0400:06:18
49642DANNY SHAFFIELD43MVESTAVIA HILLS AL 00:39:2400:06:2200:39:2200:06:21
50423WILLIAM LOVE15MVESTAVIA HILLS AL 00:39:5600:06:2700:39:5300:06:26
51633JOHN SCHOR22MBIRMINGHAM ALCADENCE COED00:40:0500:06:2800:40:0300:06:28
528CHELSEY PALMER28FBIRMINGHAM ALCAHABA DISTANCE PROJECT00:40:1200:06:2900:40:1000:06:29
53769TREY WHITT45MBIRMINGHAM AL 00:40:1800:06:3000:40:0900:06:29
54987GRAHAM BIANCHI16MTRUSSVILLE AL 00:40:2700:06:3200:40:2100:06:31
55188DAVID DENARD48MTRUSSVILLE AL 00:40:4300:06:3500:40:3900:06:34
56634MIKE SCHOR53MBIRMINGHAM ALCADENCE MEN00:40:5600:06:3700:40:5200:06:36
57590ALAN REEVES26MBIRMINGHAM AL 00:41:0100:06:3700:40:5800:06:37
5898JOSH BOYD16MASHVILLE AL 00:41:0100:06:3700:40:5800:06:37
592JENNIFER DUNN26FBIRMINGHAM AL 00:41:0500:06:3800:41:0300:06:38
60204DANIEL DYE39MBIRMINGHAM AL 00:41:1300:06:3900:40:3900:06:34
61384DANNER KLINE38MBIRMINGHAM AL 00:41:2000:06:4000:41:1900:06:40
PlaceBibNAMEAgeSexCITY/STATETeamNameGunTimeGunPaceTagTimeTagPace
62849CHARLIE PARKS36MBIRMINGHAM AL 00:41:2200:06:4100:41:1700:06:40
63233MADELEINE FRANK25FBIRMINGHAM AL 00:41:2300:06:4100:41:1900:06:40
6486BRANDON BLACK37MBIRMINGHAM AL 00:41:2500:06:4100:41:2300:06:41
65391LOREN KULP44MALABASTER ALCADENCE MEN00:41:2700:06:4200:41:2400:06:41
66614BILLY ROSE35MBIRMINGHAM ALRUNNINGLANE COED00:41:3000:06:4200:41:2600:06:41
671029RUSSELL WILLIAMS47MBIRMINGHAM AL 00:41:3900:06:4400:41:3700:06:43
68165DAMON COX38MHOMEWOOD AL 00:41:4400:06:4400:41:4200:06:44
69166MARY CRAIG24FHOOVER AL 00:41:4400:06:4400:41:3900:06:44
70294FONTAINE HASKELL35FBIRMINGHAM ALRESOLUTE RUNNING WOMEN00:41:4500:06:4400:41:4300:06:44
711037KELLY FARRELL28FBIRMINGHAM AL 00:41:4900:06:4500:41:3800:06:43
72823LAUREN FLOYD34FBIRMINGHAM ALCADENCE COED00:41:5200:06:4600:41:4800:06:45
73706SHAUN TILLERY36MLEEDS AL 00:41:5600:06:4600:41:5200:06:46
74186JOSEPH DEASE40MVESTAVIA HILLS AL 00:41:5600:06:4600:41:5300:06:46
75311MELANIE HILDEBRANDT28FBIRMINGHAM AL 00:41:5800:06:4600:41:5400:06:46
76504KIRK MUELLER55MBIRMINGHAM ALCADENCE MEN00:42:0000:06:4700:41:5600:06:46
77803CHRIS ZENKER52MBIRMINGHAM AL 00:42:0900:06:4800:42:0500:06:48
7862EVAN BAGGETT36MBIRMINGHAM AL 00:42:2400:06:5100:42:1600:06:49
79451GREGORY MCATEE30MDURHAM NC 00:42:3000:06:5200:42:2400:06:51
8093RYAN BONNER32MBIRMINGHAM AL 00:42:3500:06:5300:42:3300:06:52
81860CLEWIS SMITH25MBIRMINGHAM AL 00:42:4700:06:5400:42:3200:06:52
821063WILLIAM SASSER39MHOMEWOOD AL 00:42:4700:06:5400:42:3900:06:53
83843WALTER MCCORD, JR.25MBIRMINGHAM AL 00:42:4900:06:5500:42:2100:06:50
84440CRAIG MATHEWS44MODENVILLE AL 00:42:5100:06:5500:42:4900:06:55
85178NATHANIEL DARVILLE39MBIRMINGHAM AL 00:42:5200:06:5500:42:4700:06:54
86979NATE WILLIAMS29MBIRMINGHAM AL 00:42:5700:06:5600:42:3800:06:53
87276MISTY GRIFFIN42FMOODY AL 00:42:5800:06:5600:42:5400:06:56
88297CHAD HATHORNE48MHOMEWOOD AL 00:43:0800:06:5800:43:0400:06:57
89498ALEX MORROW44MBIRMINGHAM ALRESOLUTE RUNNING COED00:43:1300:06:5900:42:5300:06:55
90897JOSH DYKES17MTRUSSVILLE AL 00:43:1600:06:5900:43:0600:06:58
91627NATHAN SATURDAY38MBIRMINGHAM AL 00:43:1800:06:5900:43:1600:06:59
92337LAUREN HOWELL24FBIRMINGHAM ALCAHABA DISTANCE PROJECT00:43:3200:07:0200:43:3000:07:01
PlaceBibNAMEAgeSexCITY/STATETeamNameGunTimeGunPaceTagTimeTagPace
93745JOSHUA WASHINGTON21MMERIDIANVILLE AL 00:43:3300:07:0200:43:2000:07:00
94629PAUL SCALICI36MBIRMINGHAM AL 00:43:4000:07:0300:43:3400:07:02
95173JULIE CROUSHORN44FPELHAM ALRESOLUTE RUNNING WOMEN00:43:4000:07:0300:43:3700:07:03
96393JOSEPH LAHR29MBIRMINGHAM AL 00:43:4400:07:0400:43:4000:07:03
97526JACOB NUTTER20MALGONAC MI 00:43:5000:07:0500:43:1100:06:58
98468SIMON MCVEY44MBIRMINGHAM AL 00:43:5200:07:0500:43:4800:07:04
99446SIDNEY MAYS55MVESTAVIA AL 00:43:5400:07:0500:43:5000:07:05
100329JIM HOOVER51MBIRMINGHAM AL 00:43:5800:07:0600:43:4800:07:04
101806STEVE ARCHER50MMUSCLE SHOALS AL 00:43:5900:07:0600:43:5500:07:05
102888RENATO CORBETTA47MBIRMINGHAM AL 00:44:1000:07:0800:43:5800:07:06
1031021ROGER WOOD41MBIRMINGHAM AL 00:44:1200:07:0800:44:0500:07:07
104570DAVID PLANTE54MBIRMINGHAM AL 00:44:1800:07:0900:44:1400:07:08
105229JOHN FORREST25MPELHAM AL 00:44:2000:07:0900:43:5900:07:06
106917MATT HOOD47MIRVINE CA 00:44:2400:07:1000:44:2100:07:10
107814MATTHEW COUCH31MMOUNTAIN BROOK ALCABANISS JOHNSTON00:44:2600:07:1000:44:1600:07:09
108467MARK MCTUNE51MHELENA AL 00:44:2900:07:1100:44:2500:07:10
109195STAN DORAN50MPELHAM AL 00:44:3000:07:1100:44:2600:07:10
110557CHARLIE PETERS30MBIRMINGHAM AL 00:44:3000:07:1100:44:2000:07:10
111768HAL WHITSITT33MVESTAVIA HILLS AL 00:44:3600:07:1200:44:2800:07:11
112434TODD MAPLE44MBIRMINGHAM AL 00:44:3700:07:1200:44:2800:07:11
113902YU FENG32MSTILLWATER OK 00:44:4300:07:1300:44:3500:07:12
114187ANNE DEBARDELEBEN34FBIRMINGHAM ALRESOLUTE RUNNING WOMEN00:44:4500:07:1400:44:3700:07:12
115105MURRAY BROMSTAD39FBIRMINGHAM AL 00:44:4700:07:1400:44:4100:07:13
116813CHRISTOPHER CAREY46MBIRMINGHAM AL 00:44:5100:07:1400:44:4100:07:13
117128J. WESLEY CAPUTO24MMONTGOMERY AL 00:44:5300:07:1500:44:3300:07:12
118220CHRIS FARRINGTON53MBIRMINGHAM AL 00:45:0100:07:1600:44:5600:07:15
119948JENNIFER MURRAY32FBIRMINGHAM AL 00:45:0200:07:1600:44:5600:07:15
12051JOHN ANDRESS13MHOMEWOOD ALRESOLUTE RUNNING COED00:45:1000:07:1800:45:1000:07:18
1211084JASON MURRAY35MHOOVER AL 00:45:1100:07:1800:45:0400:07:17
122891SAM CULBERTSON13MBIRMINGHAM AL 00:45:1300:07:1800:45:0900:07:17
123138JENNIFER CHRISTY47FBIRMINGHAM AL 00:45:1400:07:1800:45:0900:07:17
PlaceBibNAMEAgeSexCITY/STATETeamNameGunTimeGunPaceTagTimeTagPace
124880MARC BROMSTAD43MBIRMINGHAM AL 00:45:2000:07:1900:45:1400:07:18
125842LEE MATHIS30MHOOVER AL 00:45:2100:07:1900:44:5600:07:15
126878RYAN BLY27MMC CALLA AL 00:45:2600:07:2000:45:2400:07:20
127184RON DEAN47MBIRMINGHAM AL 00:45:3000:07:2100:45:2400:07:20
1281074MITSUO TSUKAMOTO51MDECATUR AL 00:45:3000:07:2100:45:0100:07:16
129421EDUARDO LOPEZ ANTA33MMOUNTAIN BROOK AL 00:45:3100:07:2100:45:2600:07:20
130169SCOTT CRAWFORD48MTRUSSVILLE ALRUNNINGLANE COED00:45:3300:07:2100:45:2600:07:20
131870GUY ABLE23MJASPER AL 00:45:3400:07:2100:45:1800:07:19
132591TREY REICH40MBIRMINGHAM AL 00:45:3500:07:2100:44:4900:07:14
133168ALLEN CRAWFORD50MSPRINGVILLE AL 00:45:3600:07:2200:45:3400:07:21
134638MATT SEARSON35MBIRMINGHAM AL 00:45:3700:07:2200:45:3700:07:22
135328ALISON HOOVER50FHOOVER AL 00:45:4000:07:2200:45:3100:07:21
136587NICK RAYBURN28MBIRMINGHAM AL 00:45:4200:07:2300:45:3600:07:22
137316EDWARD HINTON56MBIRMINGHAM AL 00:45:4200:07:2300:45:4100:07:23
138792RAY WORKMAN53MBIRMINGHAM AL 00:45:4400:07:2300:45:4000:07:22
139509LAUREN MURPHREE26FGARDENDALE AL 00:45:4500:07:2300:45:1600:07:19
140246MICHAEL GANN51MBIRMINGHAM ALCADENCE MEN00:45:4500:07:2300:45:4100:07:23
141933MARY BETH LEE41FHOOVER AL 00:45:5000:07:2400:45:4300:07:23
142345GREGORY IKNER31MBIRMINGHAM AL 00:45:5300:07:2400:45:3300:07:21
143747JOSH WATKINS35MTRUSSVILLE AL 00:45:5400:07:2500:45:4100:07:22
144785SPENCER WILSON19MPELHAM AL 00:45:5700:07:2500:45:4900:07:24
145272GREG GREAVES47MBIRMINGHAM AL 00:46:0500:07:2600:45:5800:07:25
146470MATTHEW MICHALKE33MODENVILLE AL 00:46:0900:07:2700:46:0300:07:26
147758ADAM WENDE38MVESTAVIA HILLS AL 00:46:0900:07:2700:45:4100:07:23
148179HARRY DAVID36MBIRMINGHAM AL 00:46:1700:07:2800:46:1000:07:27
149640TRAVIS SELF52MBIRMINGHAM AL 00:46:2100:07:2900:46:1200:07:27
150164JAMES COUNSELL54MPRATTVILLE AL 00:46:2700:07:3000:46:1900:07:29
1511096PATRICK BRANNON35MBIRMINGHAM AL 00:46:3500:07:3100:46:3000:07:30
152319TRICIA HOLBROOK55FBIRMINGHAM AL 00:46:4300:07:3300:46:3600:07:31
153506WIL MULLINS28MGADSDEN AL 00:46:4500:07:3300:46:3200:07:31
154854MEGHAN RALPH28FBIRMINGHAM AL 00:46:4500:07:3300:46:4000:07:32
PlaceBibNAMEAgeSexCITY/STATETeamNameGunTimeGunPaceTagTimeTagPace
155604KEVIN ROBERSON55MMOUNT OLIVE AL 00:46:5400:07:3400:46:5000:07:34
1561022DAVID MCKEE48MPINSON AL 00:46:5500:07:3400:46:1800:07:28
157139DAN CHU36MVESTAVIA HILLS AL 00:46:5800:07:3500:46:2900:07:30
1581042MICHELLE REID37FHOMEWOOD AL 00:47:0800:07:3700:46:5600:07:35
15969FRANK BARRY53MBIRMINGHAM AL 00:47:1000:07:3700:47:0200:07:35
1601080SCOTT SETTLE40MBIRMINGHAM AL 00:47:1300:07:3700:47:0700:07:36
161983LARRY MCQUISTON50MPHENIX CITY AL 00:47:1700:07:3800:47:0700:07:36
1621027RACHEL FRY41FBIRMINGHAM AL 00:47:1800:07:3800:46:3600:07:31
163416ADAM LINDSEY41MLEEDS ALRUNNINGLANE COED00:47:1900:07:3800:47:0900:07:37
1641058BROOKS VAUGHAN45MBIRMINGHAM AL 00:47:2200:07:3900:47:1300:07:37
165462PHILIP MCKEE53MPRATTVILLE AL 00:47:2800:07:4000:47:2000:07:38
1661048THOMAS WATSON41MVESTAVIA HILLS AL 00:47:3300:07:4100:47:2400:07:39
1671069CHUCK RADER46MHOOVER AL 00:47:3500:07:4100:47:2100:07:39
16861KELLY ATKINS32FBIRMINGHAM AL 00:47:3800:07:4100:47:2400:07:39
1691047ADAM WINGER35MHOMEWOOD AL 00:47:3800:07:4100:47:1800:07:38
170919SCOTT HOWARD35MBIRMINGHAM AL 00:47:5100:07:4300:47:4800:07:43
171379RYAN KIRBY30MBIRMINGHAM AL 00:47:5200:07:4400:47:4500:07:42
172658JASON SMITH47MBIRMINGHAM AL 00:47:5200:07:4400:47:4900:07:43
173374JAKE KENNAMER28MVESTAVIA HILLS AL 00:48:0000:07:4500:47:5400:07:44
174838LANDON LITTY38MBIRMINGHAM AL 00:48:0100:07:4500:47:4400:07:42
175982PARKER TURNER15MVESTAVIA AL 00:48:0400:07:4600:47:4700:07:43
176714STEVEN TROTTER42MHOOVER AL 00:48:0400:07:4600:47:5500:07:44
177458CARY MCDANIEL50MPRATTVILLE AL 00:48:1100:07:4700:48:0200:07:45
178507JORGE MUNOZ MOYA34MBIRMINGHAM AL 00:48:1300:07:4700:47:5600:07:44
179141ROY CLARKSON40MTRUSSVILLE AL 00:48:2100:07:4800:48:1200:07:47
1801025TAYLOR DONARD46MTRUSSVILLE AL 00:48:2300:07:4900:48:1700:07:48
181121THERESA BURST58FBIRMINGHAM AL 00:48:2500:07:4900:48:1600:07:48
182103HUNTER BRIDWELL33MBESSEMER AL 00:48:2700:07:4900:48:1500:07:47
183149NATHAN COLLINS40MHOOVER AL 00:48:3000:07:5000:48:2600:07:49
18453JENNIFER ANDRESS48FHOMEWOOD ALRESOLUTE RUNNING WOMEN00:48:3000:07:5000:48:1700:07:48
1851049JEFF GLAZE46MBIRMINGHAM AL 00:48:3800:07:5100:48:2700:07:49
PlaceBibNAMEAgeSexCITY/STATETeamNameGunTimeGunPaceTagTimeTagPace
186775PETER WILKIN39MTRUSSVILLE AL 00:48:4000:07:5100:48:3300:07:50
187263CATHERINE GOMEZ25FBIRMINGHAM AL 00:48:5400:07:5400:48:4100:07:52
1881040PERRY ANDERSON55MODENVILLE AL 00:48:5500:07:5400:48:4400:07:52
189615PAUL ROSS44MVESTAVIA AL 00:49:0000:07:5500:48:1800:07:48
1901071TOMOKUNI HASEGAWA38MOSAKA 00:49:0200:07:5500:48:3300:07:50
191827NORIYUKI HANASHIRO58MBIRMINGHAM AL 00:49:0300:07:5500:48:4800:07:53
192924JEN JACKSON47FHOMEWOOD AL 00:49:0300:07:5500:48:5000:07:53
193890JOSH CULBERTSON42MBIRMINGHAM AL 00:49:0800:07:5600:49:0200:07:55
194834SCOTT KEY53MJACKSONVILLE AL 00:49:1400:07:5700:48:3200:07:50
195494JASON MORRIS44MVESTAVIA AL 00:49:1500:07:5700:49:0100:07:55
196299JONATHAN HAY33MBIRMINGHAM AL 00:49:2100:07:5800:48:4900:07:53
197192DREW DICKERSON43MNORTHPORT AL 00:49:2200:07:5800:49:0000:07:55
198398JEFF LANCASTER36MBIRMINGHAM AL 00:49:2600:07:5900:49:0000:07:55
199697JOHN THETFORD46MTUSCALOOSA AL 00:49:3000:07:5900:49:0100:07:55
200251CHAD GAY39MBIRMINGHAM AL 00:49:3300:08:0000:49:0600:07:56
201893ANGEL DARMER34FBIRMINGHAM AL 00:49:4000:08:0100:48:3500:07:51
202666ERIC SMITH47MHOOVER AL 00:49:4100:08:0100:49:3600:08:00
203199MEGAN DRUMM34FBIRMINGHAM AL 00:49:4300:08:0100:49:2300:07:58
204249JASON GARWOOD40MBIRMINGHAM AL 00:49:4300:08:0200:49:2300:07:58
205732SAM VOGT56MVESTAVIA HILLS AL 00:49:4400:08:0200:49:2800:07:59
206261TANNER GLENN24MBIRMINGHAM AL 00:49:5500:08:0400:48:5700:07:54
207595MISTY REYNOLDS43FVESTAVIA AL 00:50:0000:08:0400:49:5400:08:03
2081023RUSTY HUGHES42MBIRMINGHAM AL 00:50:0100:08:0400:49:1500:07:57
209672AMANDA SOONG40FVESTAVIA HILLS AL 00:50:0300:08:0500:49:0200:07:55
21067RAMOND BANKS59MBIRMINGHAM AL 00:50:0400:08:0500:49:5300:08:03
211401DREW LANSDELL24MBIRMINGHAM AL 00:50:0800:08:0600:49:0900:07:56
21276JON BECKER35MBIRMINGHAM AL 00:50:0800:08:0600:49:4300:08:01
21363CHRISTOPHER BAGGETT42MBESSEMER ALRUNNINGLANE COED00:50:0800:08:0600:49:3100:08:00
214219PETER FALKNER35MBIRMINGHAM AL 00:50:1000:08:0600:49:4200:08:01
215649DANIEL SILBERGER29MHOMEWOOD AL 00:50:1000:08:0600:49:5000:08:03
216253MICHAEL GEER51MBIRMINGHAM AL 00:50:1100:08:0600:50:0400:08:05
PlaceBibNAMEAgeSexCITY/STATETeamNameGunTimeGunPaceTagTimeTagPace
217713NICK TOTH36MBIRMINGHAM AL 00:50:1500:08:0700:49:5900:08:04
218205JOHN EASON34MBIRMINGHAM AL 00:50:1600:08:0700:49:5700:08:04
219586JEFF RAY52MBIRMINGHAM AL 00:50:1800:08:0700:50:1200:08:06
220648JAMES SHOAF61MFULTONDALE AL 00:50:2400:08:0800:50:1900:08:07
2211065RYAN CANTOR36MBIRMINGHAM AL 00:50:2500:08:0800:50:1700:08:07
222436PATRICK MARTIN39MBIRMINGHAM AL 00:50:2600:08:0800:50:0700:08:05
223934SCOTT LEE44MHOOVER AL 00:50:2800:08:0900:49:4600:08:02
224766LAURIE WHITE34FBIRMINGHAM AL 00:50:3100:08:0900:50:1300:08:06
225624JOEY SAFFOLD47MBIRMINGHAM AL 00:50:3200:08:0900:50:1800:08:07
226539CHAD PALMORE35MBIRMINGHAM AL 00:50:3300:08:1000:50:2100:08:08
227332KELLY HORN48MFULTONDALE AL 00:50:4600:08:1200:50:3100:08:09
228275BRENDAN GRIFFIN27MBIRMINGHAM AL 00:50:4600:08:1200:50:3800:08:10
229700JAMIE THOMAS55FBIRMINGHAM AL 00:50:4700:08:1200:50:3500:08:10
230395JANE LAMB45FBIRMINGHAM AL 00:50:5000:08:1200:50:3600:08:10
231601HADEN RIDLEHOOVER45FBIRMINGHAM AL 00:50:5000:08:1200:50:3700:08:10
232765PHILLIP WHITE53MINDIAN SPRINGS AL 00:50:5000:08:1200:50:3100:08:09
233760STELLA WENNBERG30FWINFIELD AL 00:50:5100:08:1300:50:1200:08:06
234744DAVID WASHINGTON50MMERIDIANVILLE AL 00:51:0000:08:1400:50:4900:08:12
235336PHILIP HOUSLER31MBIRMINGHAM AL 00:51:0400:08:1500:50:3300:08:10
236159LAUREN CORNELIUS27FONEONTA AL 00:51:0700:08:1500:50:4400:08:11
237646GRETCHEN SHEPPARD36FBIRMINGHAM AL 00:51:0800:08:1500:50:5100:08:13
238239ROBERT FUNK53MPELL CITY AL 00:51:1200:08:1600:50:4700:08:12
239602JOSE RIVERA35MBIRMINGHAM AL 00:51:1400:08:1600:50:5500:08:13
240913THOMAS HALL56MBIRMINGHAM AL 00:51:1700:08:1700:50:5000:08:12
2411099SHANNON SHORR31MBIRMINGHAM AL 00:51:2000:08:1700:50:4700:08:12
242976UTA WENDLAND39FBESSEMER AL 00:51:2000:08:1700:50:4800:08:12
243262HOLLY GOFF39FBIRMINGHAM AL 00:51:2200:08:1700:50:4100:08:11
244985DAVID CONDON47MHOMEWOOD AL 00:51:2400:08:1800:51:0400:08:15
2451055MATTHEW WEATHERS38MBIRMINGHAM AL 00:51:2500:08:1800:51:0200:08:14
246425TIMOTHY LUPINACCI50MBIRMINGHAM AL 00:51:2700:08:1800:51:0800:08:15
247520TAYLOR NIEDER25FBIRMINGHAM AL 00:51:2900:08:1900:50:4900:08:12
PlaceBibNAMEAgeSexCITY/STATETeamNameGunTimeGunPaceTagTimeTagPace
248684JOHN STRAKA51MLEEDS AL 00:51:3000:08:1900:50:4700:08:12
24944AMELIA ALTZ-STAMM33FBIRMINGHAM AL 00:51:3600:08:2000:51:2400:08:18
250389JONATHAN KRESSUK19MFRANKLIN WI 00:51:3900:08:2000:50:5800:08:14
25177JOEY BENTLEY35MANNISTON AL 00:51:4800:08:2200:51:0600:08:15
25259JUSTIN ASHBY37MONEONTA AL 00:51:5000:08:2200:51:5000:08:22
253932SHILONQUA LEE39FBESSEMER ALRESOLUTE RUNNING WOMEN00:51:5200:08:2200:51:3200:08:19
2541051DAVID SCHROLL33MHOMEWOOD AL 00:51:5300:08:2200:51:1000:08:16
255680KELSEY STEIN27FBIRMINGHAM AL 00:51:5600:08:2300:51:4900:08:22
256211HEATHER ERON37FBIRMINGHAM AL 00:51:5700:08:2300:51:3300:08:19
257702STEVEN THOMPSON56MMOUNTAIN BROOK AL 00:51:5800:08:2300:51:3000:08:19
258613TOVAH ROSE36FBIRMINGHAM AL 00:51:5800:08:2300:51:1700:08:17
259612JASON ROSE39MHOOVER AL 00:51:5800:08:2300:51:1900:08:17
26052KEITH ANDRESS49MHOMEWOOD ALRELOLUTE RUNNING COED00:51:5900:08:2300:51:3800:08:20
261465MARY LEE MCMAHON49FBIRMINGHAM AL 00:52:0100:08:2400:51:3600:08:20
262394TYLER LAHTI26MBIRMINGHAM AL 00:52:0100:08:2400:51:5800:08:23
263479SALLY ANN MISSILDINE17FDECATUR AL 00:52:0100:08:2400:51:4000:08:20
264196EVAN DORMAN41MBIRMINGHAM AL 00:52:0200:08:2400:51:2700:08:18
265812MATTHEW BURROW29MBIRMINGHAM AL 00:52:0200:08:2400:51:0000:08:14
266908STEVE FOY49MBIRMINGHAM AL 00:52:0600:08:2500:51:4400:08:21
267131BRAD CARTER42MBIRMINGHAM AL 00:52:1200:08:2600:51:2200:08:18
268844JEFFREY MITCHELL47MBIRMINGHAM AL 00:52:1300:08:2600:52:0000:08:24
269396MICHAEL LAMBERT50MCHELSEA AL 00:52:1300:08:2600:51:4800:08:22
27047ASHLEY AMES38FHELENA AL 00:52:1300:08:2600:51:3800:08:20
271592ROBERT REICH38MBIRMINGHAM AL 00:52:1400:08:2600:51:2900:08:19
2721089GARY HOWELL57MFULTONDALE AL 00:52:1500:08:2600:51:4800:08:22
273912CODY GRISSOM35MJASPER AL 00:52:1500:08:2600:51:4400:08:21
274969JULIE TUCKER35FBIRMINGHAM AL 00:52:1700:08:2600:51:4300:08:21
275501MIKE MOSES42MBIRMINGHAM AL 00:52:1700:08:2600:51:4100:08:21
276224BLAKE FLYNT31MCULLMAN AL 00:52:1900:08:2700:51:3800:08:20
277571GREG POOLE56MBIRMINGHAM AL 00:52:2000:08:2700:52:1200:08:25
278366STACY KADLE54FHOMEWOOD AL 00:52:2000:08:2700:52:0300:08:24
PlaceBibNAMEAgeSexCITY/STATETeamNameGunTimeGunPaceTagTimeTagPace
279252MEREDITH GAY39FBIRMINGHAM AL 00:52:2000:08:2700:51:5200:08:22
280644LUKE SHANNON37MBIRMINGHAM AL 00:52:2000:08:2700:51:3500:08:20
281292ROBERT HARRIS34MLEEDS AL 00:52:2100:08:2700:51:3800:08:20
282670JUSTIN SMITHERMAN29MHELENA AL 00:52:2100:08:2700:51:5800:08:23
283518JESSICA NICHOLS26FBIRMINGHAM AL 00:52:2500:08:2800:52:0800:08:25
284945LANIER MILLSAP45MBIRMINGHAM AL 00:52:3000:08:2800:52:2100:08:27
285533AMBER ORTIZ26FBIRMINGHAM AL 00:52:3100:08:2900:51:3200:08:19
286167TERESA CRAIN49FVESTAVIA HILLS ALRUNNINGLANE COED00:52:3200:08:2900:52:2300:08:27
287565CHRIS PINTO25MHOMEWOOD AL 00:52:3400:08:2900:52:1400:08:26
28835BRYANT ADAMS41MWARRIOR AL 00:52:3400:08:2900:51:3200:08:19
289977LEE WICKS20MTUSCALOOSA AL 00:52:3900:08:3000:52:2700:08:28
290740LAURA CATHERIN WALLACE19FBRENTWOOD TN 00:52:3900:08:3000:52:2700:08:28
29137CARLOS AGEA29MBIRMINGHAM AL 00:52:4400:08:3100:52:2500:08:28
292951SHANE NORRIS38MQUINTON AL 00:52:4600:08:3100:52:1500:08:26
293683GREG STONE53MOXFORD AL 00:52:5000:08:3200:52:0700:08:25
294182KRISTIE DAY32FBIRMINGHAM AL 00:52:5600:08:3300:52:3600:08:29
295265CHERYL GOODWIN46FBIRMINGHAM AL 00:52:5700:08:3300:52:5200:08:32
29674JACOB BEATTY24MBIRMINGHAM AL 00:52:5700:08:3300:52:3500:08:29
297667JAMES SMITH57MBIRMINGHAM AL 00:53:0000:08:3300:52:5200:08:32
298554ROBERT PEEK24MBIRMINGHAM AL 00:53:0300:08:3400:52:3500:08:29
299214TAYLOR ESTES38FBIRMINGHAM AL 00:53:0400:08:3400:52:4500:08:31
300737ANDREA WALKER34FBIRMINGHAM AL 00:53:0800:08:3500:52:5200:08:32
301950BETH NORRIS37FQUINTON AL 00:53:0900:08:3500:52:3900:08:30
302669GRACE SMITHERMAN28FHELENA AL 00:53:1100:08:3500:52:4700:08:31
303155ASHLEY COMMINS39FBIRMINGHAM AL 00:53:1100:08:3500:52:3400:08:29
304517THE MIGHTY NERDNOF31MBIRMINGHAM AL 00:53:1700:08:3600:53:1700:08:36
305215BENJAMIN ETHERIEDGE40MWARRIOR AL 00:53:2200:08:3700:52:4000:08:30
306821THOMAS FLEMING56MHAMILTON AL 00:53:2300:08:3700:52:1100:08:25
307237RYAN FRIERY34MVESTAVIA HILLS AL 00:53:2500:08:3700:53:0000:08:33
308733CHASSI WADDELL29FFULTONDALE AL 00:53:2500:08:3700:52:4800:08:31
309331KYLIE HOPPER38FBIRMINGHAM AL 00:53:2700:08:3800:53:1100:08:35
PlaceBibNAMEAgeSexCITY/STATETeamNameGunTimeGunPaceTagTimeTagPace
310593JOSE REINA32MBIRMINGHAM AL 00:53:3000:08:3800:53:1100:08:35
311938KATHRYNE MARTIN42FBIRMINGHAM AL 00:53:3100:08:3800:53:0900:08:35
3121076MICHAEL DAVIS44MCUMMING GA 00:53:3400:08:3900:53:1400:08:36
3131036ANDREW MCKINNON42MBIRMINGHAM AL 00:53:3600:08:3900:52:5400:08:32
314238LISA FULLER57FBIRMINGHAM AL 00:53:3600:08:3900:53:2600:08:38
315619TYLER ROWE26MGARDENDALE AL 00:53:3700:08:3900:53:2800:08:38
316404BRIAN LAWSON36MTRUSSVILLE AL 00:53:4000:08:4000:53:2400:08:37
317135BRYAN CHACE60MBIRMINGHAM AL 00:53:4300:08:4000:53:3400:08:39
318278SATYA GULLAPALLI45MHOOVER AL 00:53:4400:08:4000:53:3200:08:38
319718NEILL TYLER47MPELHAM AL 00:53:4500:08:4100:53:2900:08:38
320364SARA JOYCE29FDENVER CO 00:53:4500:08:4100:53:2000:08:37
3211083MARY KATHRYN WOODS23FHOMEWOOD AL 00:53:4500:08:4100:53:2100:08:37
3221087KEITH WOODS52MVESTAVIA HILLS AL 00:53:4700:08:4100:53:2300:08:37
323995KENNETH FORTSON61MBIRMINGHAM AL 00:53:4800:08:4100:53:4100:08:40
324877TONY BLAKENEY60MBIRMINGHAM AL 00:53:4900:08:4100:53:1000:08:35
325862TREVOR STEPHENS28MDENVER CO 00:53:5300:08:4200:53:2900:08:38
326132ANDREW CASE35MBIRMINGHAM AL 00:53:5400:08:4200:53:0000:08:33
32791EKKEHARD BONATZ60MBIRMINGHAM AL 00:53:5600:08:4200:53:4100:08:40
3281006RONALD OLSEN54MMADISON AL 00:53:5900:08:4300:53:4400:08:40
329637ERIN SEARSON33FBIRMINGHAM AL 00:54:0000:08:4300:53:3000:08:38
330786ROBERT WINDSOR27MBIRMINGHAM AL 00:54:0500:08:4400:53:2600:08:37
331420DAVID LOPER52MBIRMINGHAM AL 00:54:0600:08:4400:53:3600:08:39
332428MARIA MADDEN31FBIRMINGHAM AL 00:54:0900:08:4400:53:1600:08:36
3331085TIM HARRIS46MHOOVER AL 00:54:1000:08:4500:53:2700:08:38
334886ALAN CHRISTIAN50MHOOVER AL 00:54:1200:08:4500:54:0400:08:44
335408HEATHER LEE39FBIRMINGHAM AL 00:54:1500:08:4500:53:5200:08:42
336899JACKSON ENGEL15MBIRMINGHAM AL 00:54:1500:08:4500:53:5400:08:42
337392HANNA LAHR28FBIRMINGHAM AL 00:54:1500:08:4500:53:5300:08:42
338898CHRISTOPHER ENGEL47MBIRMINGHAM AL 00:54:1500:08:4500:54:1500:08:45
339376ALI KILIC39MBIRMINGHAM AL 00:54:2100:08:4600:54:0400:08:44
340911WILLIAM GREENWALD50MBIRMINGHAM AL 00:54:2400:08:4700:53:5100:08:42
PlaceBibNAMEAgeSexCITY/STATETeamNameGunTimeGunPaceTagTimeTagPace
3411005KEVIN RUGGIERO36MBIRMINGHAM AL 00:54:2500:08:4700:54:0100:08:43
342997MARK DUNN57MTRUSSVILLE AL 00:54:2600:08:4700:53:5600:08:42
343422ANDREW LOVE49MVESTAVIA HILLS AL 00:54:2600:08:4700:54:2100:08:46
344616JOEY ROSSER52MHOOVER AL 00:54:2600:08:4700:53:2900:08:38
345853JUSTIN PRITCHARD24MBIRMINGHAM AL 00:54:3600:08:4900:54:1100:08:45
346715KACY TUCKER27FMOUNT OLIVE AL 00:54:3600:08:4900:54:1900:08:46
347310JOHN HIGH52MHOMEWOOD AL 00:54:3800:08:4900:54:1000:08:45
34848REYNOLDS ANDERSON33MBIRMINGHAM AL 00:54:3800:08:4900:54:0900:08:45
349240JEFFREY FUQUA49MBIRMINGHAM AL 00:54:4200:08:5000:53:5900:08:43
350413CHRIS LENOIR42MCALERA AL 00:54:4200:08:5000:54:0600:08:44
351478JULIE MISSILDINE53FDECATUR AL 00:54:4400:08:5000:54:2300:08:47
352513LISA NAGY50FBIRMINGHAM AL 00:54:4700:08:5100:54:3100:08:48
353879GEOFFREY BOSTANY25MBIRMINGHAM AL 00:54:5000:08:5100:54:4500:08:50
354756AMI WEEMS42FBIRMINGHAM AL 00:54:5500:08:5200:53:4300:08:40
355725WARREN VANDENTOP44MBIRMINGHAM AL 00:54:5600:08:5200:54:2600:08:47
356620FREDDY RUBIO45MBIRMINGHAM AL 00:54:5600:08:5200:54:4500:08:50
3571008RYAN WHITLEY54MPINSON AL 00:55:0100:08:5300:54:3000:08:48
358796LESLIE WRIGHT35FBIRMINGHAM AL 00:55:0200:08:5300:54:5100:08:51
3591078SCOTT TURNER50MBIRMINGHAM AL 00:55:0400:08:5300:54:4100:08:50
3601070ANIL CHADHA38MHOMEWOOD AL 00:55:0400:08:5300:54:3200:08:48
36140CHRISTOPHER ALBANY36MBIRMINGHAM AL 00:55:0600:08:5400:55:0000:08:53
362574JEAN POWERS53FMOBILE AL 00:55:0800:08:5400:54:1200:08:45
363324LAUREN HOLT22FBIRMINGHAM AL 00:55:0900:08:5400:54:4100:08:50
364749CHRIS WATSON38MTRUSSVILLE AL 00:55:1000:08:5400:54:3600:08:49
365185KATHERINE DEASE38FBIRMINGHAM AL 00:55:1100:08:5400:55:0000:08:53
366493DAVID MORRIS33MBIRMINGHAM AL 00:55:1100:08:5400:55:0400:08:53
367414PATRICK LEWIS33MHOOVER AL 00:55:1200:08:5500:54:2300:08:47
3681092BRITTANY DECKER27FBIRMINGHAM AL 00:55:1400:08:5500:55:0000:08:53
3691061KARI HOGUE39FVESTAVIA AL 00:55:1600:08:5500:54:3900:08:49
370884OCTAVIO CAVIEDES54MVESTAVIA HILLS AL 00:55:1900:08:5600:54:4400:08:50
371729RODRIGO VELASCO SANCHO32MBIRMINGHAM AL 00:55:1900:08:5600:55:0000:08:53
PlaceBibNAMEAgeSexCITY/STATETeamNameGunTimeGunPaceTagTimeTagPace
372952WAYNE NORRIS59MBIRMINGHAM AL 00:55:2500:08:5700:55:1400:08:55
373158CARA COOPER22FBIRMINGHAM AL 00:55:2700:08:5700:55:2100:08:56
374625MELISSA SANCHEZ29FFULTONDALE AL 00:55:2900:08:5700:54:5300:08:52
375124CHRIS CALLAHAN40MBIRMINGHAM AL 00:55:2900:08:5700:54:5100:08:51
376497MICHAEL MORRISSEY65MBIRMINGHAM AL 00:55:3500:08:5800:54:5000:08:51
377817SIGIFREDO DURAN42MPINSON AL 00:55:3600:08:5800:54:5200:08:51
378273JAMES GREEN39MBIRMINGHAM AL 00:55:3700:08:5900:54:3500:08:49
37992AMY BONKA28FBIRMINGHAM AL 00:55:4100:08:5900:55:2800:08:57
380426CARLOS LUZURIAGA37MHOMEWOOD AL 00:55:4100:08:5900:55:2400:08:57
381156ELIZABETH COMPTON42FBIRMINGHAM AL 00:55:4300:09:0000:55:2800:08:57
382815WILL DAVIS35MBIRMINGHAM AL 00:55:4700:09:0000:54:5400:08:52
383193ANNE DIGGS41FBIRMINGHAM AL 00:55:4700:09:0000:55:2300:08:56
384489CARA MORANTZ33FBIRMINGHAM AL 00:55:4800:09:0000:55:2700:08:57
3851056MARK MOLSON35MBIRMINGHAM AL 00:55:5000:09:0100:55:2900:08:57
386309ALEJANDRA HERNANDEZ ORTIZ28FBIRMINGHAM AL 00:55:5100:09:0100:55:3300:08:58
387743KYLE WARRAM37MHELENA AL 00:55:5500:09:0100:55:2300:08:56
388964DEANNA STEELE56FTUSCALOOSA AL 00:55:5500:09:0200:55:4300:09:00
3891017JOSEPH KEENER45MBIRMINGHAM AL 00:55:5600:09:0200:55:1300:08:55
390437KATIE MATCHEN27FBIRMINGHAM AL 00:55:5600:09:0200:55:4700:09:00
391968CEDRICK THOMAS42MBIRMINGHAM AL 00:55:5700:09:0200:54:5600:08:52
392599EMILY RICHEY26FTUSCALOOSA AL 00:56:0100:09:0300:55:0400:08:53
393560BRIDGET PHILLIPS39FTRUSSVILLE AL 00:56:0500:09:0300:55:3000:08:58
394325MIKE HOOD58MSPRINGVILLE AL 00:56:0800:09:0400:56:0500:09:03
395548MELANIE PAUL51FLOUISVILLE MS 00:56:0800:09:0400:55:3800:08:59
396549ROBERT PAUL54MLOUISVILLE MS 00:56:0800:09:0400:55:3800:08:59
3971041BILL JACKA JR49MHOMEWOOD AL 00:56:1100:09:0400:55:2400:08:57
398354LAUREN JOHNSEY35FBIRMINGHAM AL 00:56:1200:09:0400:55:1600:08:55
399552JULIE PEARCE44FBIRMINGHAM ALRESOLUTE RUNNING COED00:56:1500:09:0500:55:4500:09:00
400688CHAD SUMMERS44MTRUSSVILLE AL 00:56:1500:09:0500:55:3900:08:59
40156AMY ARMSTRONG41FSPANISH FORT AL 00:56:1600:09:0500:55:4900:09:01
402596CATHERINE RHODES41FGOLDEN CO 00:56:1600:09:0500:55:4900:09:01
PlaceBibNAMEAgeSexCITY/STATETeamNameGunTimeGunPaceTagTimeTagPace
403940TREY MCCLURE39MBIRMINGHAM AL 00:56:1700:09:0500:56:0200:09:03
40449ERICA ANDERSON41FBIRMINGHAM AL 00:56:1800:09:0500:55:5700:09:02
40587DYLAN BLACK48MBIRMINGHAM AL 00:56:2000:09:0600:56:0300:09:03
406418CLAIRE LONG34FBIRMINGHAM AL 00:56:2400:09:0600:55:5900:09:02
407524ALLIE NORTON23FHOMEWOOD AL 00:56:2600:09:0600:56:1200:09:04
408375GREGORY KENNEDY46MBIRMINGHAM AL 00:56:2600:09:0700:55:5700:09:02
409370DAVID KEARLEY13MCOLUMBIANA AL 00:56:2700:09:0700:56:2000:09:05
410496PHIL MORRIS45MCOLUMBIANA AL 00:56:2800:09:0700:55:4900:09:01
411268VINCENT GRAFFEO38MBIRMINGHAM AL 00:56:3000:09:0700:55:3600:08:58
412663MEGAN SMITH19FHUNTSVILLE AL 00:56:3000:09:0700:56:1700:09:05
413540SUKESH PARAMESWARAN47MMADISON AL 00:56:3100:09:0700:56:1400:09:05
414170JUSTIN CROCKER28MDORA AL 00:56:3300:09:0800:55:2700:08:57
415926LUKE JONES31MBIRMINGHAM AL 00:56:3500:09:0800:56:0200:09:03
416367KIM KANE49FVESTAVIA AL 00:56:3700:09:0800:56:1400:09:05
417148BRANDON COLLINS42MCALERA AL 00:56:4100:09:0900:56:1700:09:05
418106JAMES BROOME63MBIRMINGHAM AL 00:56:4500:09:1000:55:5900:09:02
419755LANCE WEEKS52MMOUNT OLIVE AL 00:56:4600:09:1000:55:4200:09:00
420873LESLIE ARMSTRONG38FTRUSSVILLE AL 00:56:4600:09:1000:56:1200:09:04
4211052JASON DUNCAN36MBIRMINGHAM AL 00:56:4800:09:1000:56:3000:09:07
422881CHARLES BROWNING68MPELL CITY AL 00:56:5100:09:1100:56:3700:09:08
423971ANA TUCKER40FTRUSSVILLE AL 00:56:5800:09:1200:56:2700:09:07
424235KRISTINA FREYMUTH43FFREISING 00:56:5900:09:1200:56:1200:09:04
425305DOUGLAS HENSON47MBIRMINGHAM AL 00:57:0200:09:1200:56:2300:09:06
426607ROD ROBINSON49MBIRMINGHAM ALRESOLUTE RUNNING COED00:57:0400:09:1300:56:3700:09:08
427988DIANA BLACKWELL31FBIRMINGHAM AL 00:57:0800:09:1300:56:5300:09:11
428989EMMA GRACE WATSON12FBIRMINGHAM AL 00:57:1100:09:1400:56:4200:09:09
4291050EMILY SCHROLL29FHOMEWOOD AL 00:57:1100:09:1400:56:2900:09:07
430856GORDIE ROBINSON60MBIRMINGHAM AL 00:57:1200:09:1400:56:1900:09:05
431661KYLE SMITH47MCLANTON AL 00:57:1400:09:1400:56:3700:09:08
432800THOMAS YERBY25MHOOVER AL 00:57:1500:09:1400:57:0200:09:12
433350KAKI JENKINS53FBIRMINGHAM AL 00:57:1600:09:1500:56:3900:09:09
PlaceBibNAMEAgeSexCITY/STATETeamNameGunTimeGunPaceTagTimeTagPace
434935DEJARVIS LEONARD II25MBESSEMER AL 00:57:1800:09:1500:56:5100:09:11
435741SAM WARBINGTON61MBIRMINGHAM AL 00:57:2000:09:1500:57:1400:09:14
436583JAMEY RAMSEY35MTRUSSVILLE AL 00:57:2000:09:1500:56:3400:09:08
437623MEAGHAN RYAN34FBIRMINGHAM ALRESOLUTE RUNNING WOMEN00:57:2000:09:1500:56:4300:09:09
438151CHRIS COLPACK50MBIRMINGHAM AL 00:57:2000:09:1500:56:3400:09:08
439402KATHRYN LAVENDER46FBIRMINGHAM AL 00:57:2000:09:1500:57:0600:09:13
440382ANN KLASNER50FBIRMINGHAM ALRESOLUTE RUNNING COED00:57:2200:09:1600:56:4500:09:10
441584MICHELLE RAMSEY33FTRUSSVILLE AL 00:57:2300:09:1600:56:3700:09:08
44280SURYA BHATT39MBIRMINGHAM AL 00:57:2400:09:1600:57:0300:09:13
443371STEPHEN KEARLEY38MCOLUMBIANA AL 00:57:2500:09:1600:57:1200:09:14
444970VERONICA TUCKER46FBIRMINGHAM AL 00:57:2500:09:1600:56:5400:09:11
445144APRIL CLOUD44FODENVILLE AL 00:57:2700:09:1600:56:5100:09:11
446772RANDY WILHITE63MDORA AL 00:57:2800:09:1600:57:1600:09:15
447617BARBARA ROURKE52FBIRMINGHAM AL 00:57:2800:09:1700:56:5100:09:11
448654MIKE SLOANE60MBIRMINGHAM AL 00:57:2800:09:1700:55:5900:09:02
449126MATTHEW CAMPBELL19MMEDWAY MA 00:57:3100:09:1700:56:5000:09:10
450784JULIE WILSON39FCLANTON AL 00:57:3200:09:1700:57:1100:09:14
45170JENNY BARRY50FVESTAVIA AL 00:57:3200:09:1700:57:2100:09:15
452556STEVE PENLEY57MCLANTON AL 00:57:3200:09:1700:57:1100:09:14
453867JENNIFER WALKER-JOURNEY49FHOMEWOOD AL 00:57:3300:09:1700:57:0300:09:13
454761ASHLEY WERCHANOWSKYJ41FHOOVER AL 00:57:3500:09:1800:56:3700:09:08
455701SARA THOMPSON36FHOMEWOOD AL 00:57:3700:09:1800:57:1400:09:14
456782ARLYNN WILSON57MHUNTSVILLE AL 00:57:3700:09:1800:56:4700:09:10
457981MARGARET TURNER48FVESTAVIA AL 00:57:3900:09:1800:57:2200:09:16
4581020TANYA NIX49FBIRMINGHAM AL 00:57:3900:09:1800:57:2300:09:16
459102GEORGIA BRENNAN48FBIRMINGHAM AL 00:57:4100:09:1900:57:0100:09:12
460580STEVEN PURDY57MTRUSSVILLET AL 00:57:4200:09:1900:57:2000:09:15
461810KIM BLACKENBURG35FBIRMINGHAM AL 00:57:4300:09:1900:57:1900:09:15
462900CARLEY EZZELL32FBIRMINGHAM AL 00:57:4300:09:1900:57:1200:09:14
463191EMILY DEVRIESE19FGRAND RAPIDS MI 00:57:4700:09:2000:57:0700:09:13
464921VALERIE HUGHES42FPRATTVILLE AL 00:57:4800:09:2000:57:1100:09:14
PlaceBibNAMEAgeSexCITY/STATETeamNameGunTimeGunPaceTagTimeTagPace
4651066CHRIS HOLMES44MBIRMINGHAM AL 00:57:5000:09:2000:56:5000:09:10
466282BRYAN HANCOCK44MBIRMINGHAM AL 00:57:5000:09:2000:57:2600:09:16
4671034SCOTT PADGITT51MBIRMINGHAM AL 00:57:5000:09:2000:56:5000:09:10
468692GINGER TALLENT56FKIMBERLY AL 00:58:0000:09:2200:57:3800:09:18
469730ADAM VISE27MBIRMINGHAM AL 00:58:0100:09:2200:57:3200:09:17
470896HEATHER DYKES42FTRUSSVILLE AL 00:58:0200:09:2200:57:1400:09:14
4711001SKIP MATHEWS60MTRUSSVILLE AL 00:58:0300:09:2200:57:4200:09:19
472816LINDSAY DEVENING40FBIRMINGHAM AL 00:58:0400:09:2200:57:4800:09:20
473317ANGIE HOGELAND42FONEONTA AL 00:58:0500:09:2300:57:5800:09:21
474531BEN ONI71MAUBURN AL 00:58:0600:09:2300:57:4100:09:19
475383NATHAN KLENKE25MBIRMINGHAM AL 00:58:0600:09:2300:57:0700:09:13
476895TONYA DRINKARD31FIRONDALE AL     

** Results are for the private use of participants and are the Intellectual Property of Set Up Events. Unauthorized use of these results is prohibited.